Regional Weather Roundup
Issued by NWS

Home | Current Version | Previous Version | Graphics & Text | Print | Product List | Glossary On
Versions: 1 2 3 4 5 6 7 8 9 10 11 12 13 14 15 16 17 18 19 20 21 22 23 24 25 26 27 28 29 30 31 32 33 34 35 36 37 38 39 40 41 42 43 44 45 46 47 48 49 50
000
ASUS43 KMPX 280301
RWRMN
WEATHER ROUNDUP FOR MINNESOTA
NATIONAL WEATHER SERVICE TWIN CITIES/CHANHASSEN MN
1000 PM CDT WED MAY 27 2015


NOTE: "FAIR" INDICATES FEW OR NO CLOUDS BELOW 12,000 FEET WITH NO
SIGNIFICANT WEATHER AND/OR OBSTRUCTIONS TO VISIBILITY. N/A MEANS
CURRENT SKY AND/OR WEATHER CONDITIONS ARE NOT AVAILABLE.

MNZ060>063-068>070-280400-
   Twin Cities Metro

CITY           SKY/WX    TMP DP  RH WIND       PRES   REMARKS
TWIN CITIES    PTCLDY    76  53  44 CALM      30.01R
ST PAUL        CLEAR     67  57  70 CALM      30.01R
CRYSTAL        CLEAR     68  56  65 CALM      29.99R
BLAINE         CLEAR     66  57  72 CALM      30.01R
LAKEVILLE      CLEAR     64  59  82 CALM      30.02R
EDEN PRAIRIE   CLEAR     71  54  54 CALM      30.00R
SOUTH ST PAUL  CLEAR     69  57  66 CALM      30.00R
LAKE ELMO      FAIR      63  59  88 CALM      30.02R
$$
MNZ001>005-007-008-013>017-022>024-027-028-280400-
   Northwest Minnesota

CITY           SKY/WX    TMP DP  RH WIND       PRES   REMARKS
BEMIDJI        MOCLDY    60  52  75 CALM      30.01R
HALLOCK        MOCLDY    63  46  55 N8        29.99S
ROSEAU         CLEAR     61  48  63 E6        30.02R
WARROAD        CLEAR     59  54  82 NE8       30.02R
THIEF RVR FALL MOCLDY    66  48  52 NE6       30.00R
CROOKSTON      MOCLDY    70  52  52 NE6       29.99S
FOSSTON        PTCLDY    61  46  59 CALM      30.01R
DETROIT LAKES  MOCLDY    72  48  43 CALM      30.02R
MOORHEAD       CLOUDY    70  54  56 NE3       29.99R
PARK RAPIDS    PTCLDY    69  52  54 CALM      30.00R
MAHNOMEN       FAIR      69  53  56 NW3       29.99R
$$
MNZ006-009>011-018-025>026-280400-
   North Central Minnesota

CITY           SKY/WX    TMP DP  RH WIND       PRES   REMARKS
BAUDETTE       CLEAR     59  46  62 NE5       30.01R
FLAG ISLAND    CLEAR     63  46  55 E6        30.01R
INTL FALLS     CLEAR     51  46  83 NE3       30.02R
WASKISH        PTCLDY    57  48  72 CALM      30.02R
BIG FORK       CLEAR     57  50  77 CALM      30.02R
LONGVILLE      PTCLDY    59  55  88 CALM      30.01R
GRAND RAPIDS   CLEAR     61  52  72 CALM      30.02R
CRANE LAKE     CLEAR     54  48  82 CALM      30.04R
ORR            CLEAR     55  46  71 CALM      30.00R
COOK           CLEAR     57  52  82 CALM      30.03R
WALKER         FAIR      63  55  75 CALM      30.00R
$$
MNZ012-019>021-037-280400-
   Northeast Minnesota

CITY           SKY/WX    TMP DP  RH WIND       PRES   REMARKS
DULUTH         CLEAR     67  50  54 N6        30.01R
HIBBING        CLEAR     60  48  64 N3        30.01R
EVELETH        CLEAR     63  50  63 NE3       30.03R
DULUTH HARBOR  CLEAR     68  55  64 CALM      29.98R
TWO HARBORS    CLEAR     70  55  60 CALM      29.98R
SILVER BAY     CLEAR     63  50  63 NE10      30.01R
GRAND MARAIS     N/A     48  41  76 NE7       30.03R
G MARAIS ARPRT CLEAR     57  45  62 NE5       30.06R
$$
MNZ029>031-032-039>041-046>048-054>057-064-280400-
   West Central Minnesota

CITY           SKY/WX    TMP DP  RH WIND       PRES   REMARKS
FERGUS FALLS   PTCLDY    70  52  52 E5        29.99R
WHEATON        PTCLDY    64  55  72 SE7       29.99R
MORRIS         PTCLDY    70  52  52 E5        29.99R
ALEXANDRIA     PTCLDY    68  54  60 CALM      30.03R
ELBOW LAKE     FAIR      69  60  74 E5        30.00R
WADENA         PTCLDY    63  52  67 CALM      30.01R
GLENWOOD       PTCLDY    73  48  40 CALM      30.03R
APPLETON       CLEAR     70  54  56 E5        29.98R
BENSON         CLEAR     66  57  72 CALM      30.00R
ORTONVILLE     PTCLDY    72  52  49 SE7       29.98R
MADISON        PTCLDY    72  48  43 E6        29.99R
WILLMAR        FAIR      70  57  64 CALM      30.02R
$$
MNZ033>034-036-042>043-049>051-058-059-280400-
   Central Minnesota

CITY           SKY/WX    TMP DP  RH WIND       PRES   REMARKS
ST CLOUD       CLEAR     64  55  72 CALM      30.00R
SAUK CENTRE    FAIR      66  59  78 CALM      30.02R
PAYNESVILLE    PTCLDY    62  55  79 CALM      30.02R
AITKIN         PTCLDY    63  54  72 CALM      30.00R
PINE RIVER     PTCLDY    64  55  72 CALM      30.04R
BRAINERD       CLEAR     64  57  78 CALM      30.01R
STAPLES        CLEAR     64  54  68 CALM      30.01R
LONG PRAIRIE   FAIR      64  55  72 CALM      30.02R HAZE
LITTLE FALLS   CLEAR     61  52  72 CALM      30.01R
LITCHFIELD     PTCLDY    68  52  56 CALM      30.02R
BUFFALO        CLEAR     65  58  76 CALM      30.02R
MAPLE LAKE     PTCLDY    64  59  82 CALM      30.02R
$$
MNZ037-044-045-052-053-280400-
   East Central Minnesota

CITY           SKY/WX    TMP DP  RH WIND       PRES   REMARKS
PRINCETON      CLEAR     64  57  77 CALM      30.01R
MORA           CLEAR     59  54  82 CALM      30.02R
CAMBRIDGE      CLEAR     66  55  68 CALM      30.00R
RUSH CITY      CLEAR     63  59  88 CALM      30.01R
MOOSE LAKE     CLEAR     59  54  82 SW3       29.99R
HINCKLEY       FAIR      61  59  94 CALM      30.00R
CLOQUET        CLEAR     63  48  59 CALM      30.01R
MCGREGOR       CLEAR     63  54  72 CALM      30.01R
$$
MNZ071>073-080-081-089-090-097-098-280400-
   Southwest Minnesota

CITY           SKY/WX    TMP DP  RH WIND       PRES   REMARKS
MONTEVIDEO     CLEAR     72  48  43 CALM      30.00R
GRANITE FALLS  CLEAR     73  48  41 CALM      30.01R
CANBY          MOCLDY    73  48  41 S6        30.01R
MARSHALL       PTCLDY    73  48  40 S7        30.00R
REDWOOD FALLS  CLEAR     73  54  51 SE5       30.00R
OLIVIA         CLEAR     68  50  52 CALM      30.00R
PIPESTONE      PTCLDY    70  50  49 S3        30.03R
WINDOM         MOCLDY    72  54  53 CALM      30.03R
WORTHINGTON    CLEAR     70  52  52 SW6       30.04R
JACKSON        PTCLDY    70  54  56 S6        30.05R
TRACY          CLEAR     69  53  55 SW6       30.02R
SLAYTON        CLEAR     68  50  52 CALM      30.04R
$$
MNZ065>067-074>077-082>085-091>093-280400-
   South Central Minnesota

CITY           SKY/WX    TMP DP  RH WIND       PRES   REMARKS
MANKATO        PTCLDY    73  57  56 S5        30.02R
NEW ULM        CLEAR     73  50  43 S5        30.01R
ST JAMES       CLEAR     72  59  64 E5        30.03R
FAIRMONT       PTCLDY    72  54  53 S6        30.03R
GLENCOE        PTCLDY    68  59  72 CALM      30.01R
FARIBAULT      CLEAR     64  61  88 CALM      30.03R
OWATONNA       CLEAR     66  57  72 SE6       30.04R
WASECA         PTCLDY    64  55  72 CALM      30.04R
ALBERT LEA     CLEAR     68  61  77 CALM      30.05R
$$
MNZ078>079-086>088-094>096-280400-
   Southeast Minnesota

CITY           SKY/WX    TMP DP  RH WIND       PRES   REMARKS
ROCHESTER      CLEAR     70  58  65 S3        30.06R
RED WING       CLEAR     64  61  88 CALM      30.01R
STANTON        CLEAR     66  60  78 S3        30.00R
DODGE CENTER   CLEAR     66  59  77 S5        30.05R
WINONA         CLEAR     66  63  88 CALM      30.03R
AUSTIN         CLEAR     70  55  60 CALM      30.05R
PRESTON        CLEAR     67  58  73 S5        30.06R
$$
ABBREVIATIONS USED IN REMARKS
   TC - TEMPERATURES IN CELSIUS
  WCI - WIND CHILL INDEX
   HX - HEAT INDEX
  VSB - VISIBILITY
$$


USA.gov is the U.S. government's official web portal to all federal, state and local government web resources and services.